Regional Weather Roundup
Issued by NWS Newport/Morehead, NC

Current Version | Previous Version | Graphics & Text | Print | Product List | Glossary Off
Versions: 1 2 3 4 5 6 7 8 9 10 11 12 13 14 15 16 17 18 19 20 21 22 23 24 25 26 27 28 29 30 31 32 33 34 35 36 37 38 39 40 41 42 43 44 45 46 47 48 49 50

000
ASUS42 KMHX 301410
RWRMHX
WEATHER ROUNDUP FOR EASTERN NORTH CAROLINA
NATIONAL WEATHER SERVICE NEWPORT/MOREHEAD CITY NC
900 AM EST FRI JAN 30 2015

NOTE: "FAIR" INDICATES FEW OR NO CLOUDS BELOW 12,000 FEET
WITH NO SIGNIFICANT WEATHER AND/OR OBSTRUCTIONS TO VISIBILITY

NCZ015>017-031-032-045>047-102-103-301500-
NORTH COAST

CITY           SKY/WX    TMP DP  RH WIND       PRES   REMARKS
EDENTON        CLOUDY    40  38  93 NW5       29.99S
ELIZABETH CITY LGT RAIN  39  36  89 N9        29.99R
KITTY HAWK     LGT RAIN  40  40  97 NW8       29.97R
MANTEO         LGT RAIN  41  39  93 NW10G16   29.98R

$$

NCZ045>047-081-094-103-104-301500-
CENTRAL COAST

CITY           SKY/WX    TMP DP  RH WIND       PRES   REMARKS
FRISCO         LGT RAIN  45  39  79 NW12G21   29.95R
SWANQUARTER    NOT AVBL

$$

NCZ095-097-098-100-101-301500-
SOUTHERN COAST

CITY           SKY/WX    TMP DP  RH WIND       PRES   REMARKS
BEAUFORT       CLOUDY    47  39  74 N14G24    29.98R
CEDAR ISLAND   NOT AVBL
JACKSONVILLE   CLOUDY    47  35  63 NW20G25   30.01R
PINEY ISLAND     N/A    N/A N/A N/A MISG      29.98R
WILMINGTON     PTSUNNY   48  38  68 N20G26    30.02R


$$

NCZ011>013-027>030-043-044-078>080-089-090>093-098-301500-
COASTAL PLAIN

CITY           SKY/WX    TMP DP  RH WIND       PRES   REMARKS
AHOSKIE        CLOUDY    40  34  77 CALM      30.02R
CLINTON        CLOUDY    45  32  60 NW7G18    30.06R
ELIZABETHTOWN  MOSUNNY   47  31  53 N7G18     30.05R
GOLDSBORO      PTSUNNY   44  37  76 NW15G21   30.03R
GREENVILLE     PTSUNNY   45  32  61 NW9G17    30.04R
HAVELOCK       CLOUDY    47  37  68 NW17G24   30.00R
KENANSVILLE    CLOUDY    45  32  61 NW10G16   30.05R
KINSTON        PTSUNNY   45  34  65 NW13G20   30.04R
NEW BERN       CLOUDY    47  36  65 N14G22    30.01R
RICHLANDS      CLOUDY    46  30  53 NW9G20    30.03R
ROCKY MOUNT    SUNNY     44  27  51 NW16G23   30.04R
WASHINGTON     CLOUDY    41  37  84 NW6       30.01R
WHITEVILLE     SUNNY     49  32  52 NW6       30.05R

$$

AMZ130-135-150-152-154-156-158-170-250-252-270-ANZ085-086-088-633-658-670-301500-
MARINE OBSERVATIONS

STATION/POSITION TIME  TEMP    WIND        PRES    WAVE   SWELL
                       AIR SEA DIR/SP/G            HT/PER HT/PER
                 (UTC) (F)     (DEG/KT/KT) (MB)    (FT/S) (FT/S)
CHESAPEAKE LIGHT 1300   40     340/ 12/ 15 1015.2
64 E VA BEACH    1400   40 49  350/ 21/ 25 1013.9    4/ 4   2/11
DUCK             1400   41 44  340/ 19/ 21 1014.0
2 E DUCK         1400      43                N/A     2/11   2/11
10 NE DUCK       1400      44                N/A     3/10   2/12
OREGON INLET     1400   42 42  310/ 15/ 18 1014.5
13E OREGON INLT  1400      43                N/A     3/ 6   2/12
HATTERAS CG      1400   46 46  320/ 20/ 23 1014.5
DIAMOND BUOY     1400   51 69  310/ 21/ 27 1013.1    6/ 7   2/11
17 S OCRACOKE    NOT AVBL
CAPE LOOKOUT     1300   50     290/ 16/ 20 1014.3
BEAUFORT LAB     1400   47 47  340/ 11/ 13 1014.0
27 SE WRIGHTSVLE NOT AVBL
5 SE WRIGHTSVLE  1300   52 52  310/ 17/ 19 1014.9
225 S CAPE HAT   1305   68 72  230/ 25/ 31 1015.8    6/ 5   2/11
41 SE CHARLESTON 1400   58 68  290/ 23/ 29 1016.7    6/ 6   2/ 9

$$


USA.gov is the U.S. government's official web portal to all federal, state and local government web resources and services.